GW2072 Weather Reports


time (UTC)temp
F
wind
direction
speed
knots
gust
knots
rain 1hr
in
rain 24hr
in
rain mn
in
humidity
%
barometer
mb
20260504214528 75 252 7.8 20.9 0.00 0.00 0.00 47 1002.3
20260504213031 75 241 11.3 23.5 0.00 0.00 0.00 46 1002.3
20260504211522 76 238 8.7 15.6 0.00 0.00 0.00 48 1002.3
20260504210022 76 235 8.7 17.4 0.00 0.00 0.00 50 1002.3
20260504204533 75 247 10.4 20.0 0.00 0.00 0.00 49 1002.5
20260504203027 75 231 12.2 21.7 0.00 0.00 0.00 48 1002.6
20260504201515 75 236 12.2 19.1 0.00 0.00 0.00 49 1003.0
20260504200026 73 238 9.6 20.9 0.00 0.00 0.00 51 1003.2
20260504194526 73 273 7.0 17.4 0.00 0.00 0.00 52 1003.3
20260504193025 73 238 11.3 18.2 0.00 0.00 0.00 51 1003.3
20260504191541 74 248 8.7 15.6 0.00 0.00 0.00 51 1003.3
20260504190021 74 223 8.7 22.6 0.00 0.00 0.00 53 1003.3
20260504184538 73 237 9.6 17.4 0.00 0.00 0.00 54 1003.6
20260504183028 73 240 9.6 18.2 0.00 0.00 0.00 54 1003.9
20260504181507 72 199 10.4 16.5 0.00 0.00 0.00 55 1003.8
20260504180016 71 224 8.7 13.0 0.00 0.00 0.00 54 1004.2
20260504174518 71 229 9.6 15.6 0.00 0.00 0.00 52 1004.4
20260504173010 71 223 7.0 14.8 0.00 0.00 0.00 54 1004.7
20260504171507 71 228 9.6 15.6 0.00 0.00 0.00 50 1004.9
20260504081504 43 152 0.9 1.7 0.00 0.00 0.00 81 1007.4
20260504050020 45 153 1.7 2.6 0.00 0.00 0.00 78 1009.9
20260504044529 45 160 1.7 2.6 0.00 0.00 0.00 77 1009.9
20260504043026 46 191 2.6 5.2 0.00 0.00 0.00 77 1009.9
20260504041511 46 180 3.5 6.1 0.00 0.00 0.00 76 1010.0
20260504040018 46 173 3.5 5.2 0.00 0.00 0.00 76 1010.1
20260504034522 46 218 2.6 6.1 0.00 0.00 0.00 75 1010.2
20260504033025 47 233 1.7 5.2 0.00 0.00 0.00 75 1010.4
20260504031528 47 178 1.7 5.2 0.00 0.00 0.00 74 1010.5
20260504030014 47 174 2.6 5.2 0.00 0.00 0.00 74 1010.7
20260504024531 48 185 2.6 6.1 0.00 0.00 0.00 73 1010.9
20260504023026 48 174 3.5 8.7 0.00 0.00 0.00 73 1011.0
20260504021528 48 228 3.5 7.0 0.00 0.00 0.00 73 1011.0
20260504020029 48 184 3.5 6.1 0.00 0.00 0.00 73 1011.1
20260504014515 48 157 3.5 6.1 0.00 0.00 0.00 72 1011.2
20260504013003 49 156 3.5 7.8 0.00 0.00 0.00 71 1011.1
20260504011506 49 239 3.5 8.7 0.00 0.00 0.00 71 1011.2
20260504010007 49 219 4.3 7.8 0.00 0.00 0.00 71 1011.0
20260504004512 49 164 4.3 7.8 0.00 0.00 0.00 70 1011.1
20260504003035 50 183 4.3 8.7 0.00 0.00 0.00 69 1011.2
20260504001503 50 215 3.5 6.1 0.00 0.00 0.00 69 1011.4
20260504000005 51 184 3.5 8.7 0.00 0.00 0.00 69 1011.5
20260503234513 51 184 4.3 7.0 0.00 0.00 0.00 69 1011.7
20260503233018 50 210 3.5 6.1 0.00 0.00 0.00 70 1011.7
20260503231522 50 154 1.7 7.8 0.00 0.00 0.00 70 1011.9
20260503230026 50 167 2.6 7.8 0.00 0.00 0.00 70 1012.0
20260503224509 50 153 5.2 8.7 0.00 0.00 0.00 69 1012.1
20260503223012 51 236 3.5 8.7 0.00 0.00 0.00 68 1012.5
20260503221519 51 231 5.2 10.4 0.00 0.00 0.00 67 1012.7
20260503220024 51 222 6.1 10.4 0.00 0.00 0.00 66 1012.7